TimeEDT,TemperatureF,Dew PointF,Humidity,Sea Level PressureIn,VisibilityMPH,Wind Direction,Wind SpeedMPH,Gust SpeedMPH,PrecipitationIn,Events,Conditions,WindDirDegrees,DateUTC
12:22 AM,41.0,39.2,93,30.34,2.5,NNE,2.3,-,N/A,,Clear,30,2013-09-18 04:22:00
12:23 AM,39.2,39.2,100,30.34,2.0,NNE,2.3,-,N/A,,Clear,30,2013-09-18 04:23:00
12:29 AM,41.0,41.0,100,30.34,2.5,NE,2.3,-,N/A,,Clear,40,2013-09-18 04:29:00
12:33 AM,41.0,41.0,100,30.34,2.0,NE,3.5,-,N/A,,Clear,40,2013-09-18 04:33:00
12:35 AM,41.0,39.2,93,30.34,1.8,NE,3.5,-,N/A,,Clear,40,2013-09-18 04:35:00
12:40 AM,39.2,39.2,100,30.34,2.0,NE,3.5,-,N/A,,Clear,50,2013-09-18 04:40:00
12:41 AM,39.2,39.2,100,30.34,2.5,NE,2.3,-,N/A,,Clear,50,2013-09-18 04:41:00
12:42 AM,39.2,39.2,100,30.34,4.0,ENE,2.3,-,N/A,,Clear,60,2013-09-18 04:42:00
12:58 AM,40.8,40.6,99,30.36,4.0,NE,1.2,-,N/A,,Clear,50,2013-09-18 04:58:00
1:00 AM,39.2,39.2,100,30.34,2.5,Calm,Calm,-,N/A,,Clear,0,2013-09-18 05:00:00
1:02 AM,39.2,39.2,100,30.34,2.0,Calm,Calm,-,N/A,,Clear,0,2013-09-18 05:02:00
1:05 AM,39.2,39.2,100,30.34,2.5,NNE,1.2,-,N/A,,Clear,30,2013-09-18 05:05:00
1:06 AM,39.2,39.2,100,30.34,3.0,NNE,2.3,-,N/A,,Clear,30,2013-09-18 05:06:00
1:14 AM,39.2,37.4,93,30.34,2.5,North,1.2,-,N/A,,Clear,10,2013-09-18 05:14:00
1:15 AM,39.2,37.4,93,30.34,2.0,Calm,Calm,-,N/A,,Clear,0,2013-09-18 05:15:00
1:16 AM,39.2,37.4,93,30.34,1.5,Calm,Calm,-,N/A,,Clear,0,2013-09-18 05:16:00
1:17 AM,39.2,39.2,100,30.34,1.2,NNE,1.2,-,N/A,,Clear,30,2013-09-18 05:17:00
1:18 AM,39.2,39.2,100,30.34,1.0,NNE,1.2,-,N/A,,Clear,30,2013-09-18 05:18:00
1:19 AM,39.2,39.2,100,30.34,1.0,NNE,1.2,-,N/A,,Clear,30,2013-09-18 05:19:00
1:20 AM,39.2,39.2,100,30.34,1.0,NNE,2.3,-,N/A,,Clear,30,2013-09-18 05:20:00
1:22 AM,39.2,39.2,100,30.34,1.2,NNE,1.2,-,N/A,,Clear,30,2013-09-18 05:22:00
1:24 AM,39.2,39.2,100,30.34,1.2,NE,1.2,-,N/A,,Clear,40,2013-09-18 05:24:00
1:26 AM,39.2,39.2,100,30.34,1.5,NE,2.3,-,N/A,,Clear,40,2013-09-18 05:26:00
1:27 AM,39.2,39.2,100,30.34,1.8,NE,2.3,-,N/A,,Clear,50,2013-09-18 05:27:00
1:30 AM,39.2,39.2,100,30.34,1.5,NNE,1.2,-,N/A,,Clear,30,2013-09-18 05:30:00
1:32 AM,39.2,39.2,100,30.34,1.2,Calm,Calm,-,N/A,,Clear,0,2013-09-18 05:32:00
1:33 AM,39.2,39.2,100,30.34,1.2,Calm,Calm,-,N/A,,Clear,0,2013-09-18 05:33:00
1:34 AM,39.2,39.2,100,30.34,1.0,Calm,Calm,-,N/A,,Clear,0,2013-09-18 05:34:00
1:35 AM,39.2,39.2,100,30.34,1.2,Calm,Calm,-,N/A,,Clear,0,2013-09-18 05:35:00
1:36 AM,39.2,39.2,100,30.34,1.2,Calm,Calm,-,N/A,,Clear,0,2013-09-18 05:36:00
1:38 AM,39.2,37.4,93,30.34,1.5,Calm,Calm,-,N/A,,Clear,0,2013-09-18 05:38:00
1:39 AM,39.2,37.4,93,30.34,1.8,Calm,Calm,-,N/A,,Clear,0,2013-09-18 05:39:00
1:40 AM,39.2,39.2,100,30.34,2.0,Calm,Calm,-,N/A,,Clear,0,2013-09-18 05:40:00
1:42 AM,39.2,39.2,100,30.34,2.5,NE,1.2,-,N/A,,Clear,50,2013-09-18 05:42:00
1:43 AM,39.2,39.2,100,30.33,3.0,NE,1.2,-,N/A,,Clear,40,2013-09-18 05:43:00
1:44 AM,39.2,39.2,100,30.33,2.5,Calm,Calm,-,N/A,,Clear,0,2013-09-18 05:44:00
1:47 AM,39.2,39.2,100,30.33,2.0,NNE,1.2,-,N/A,,Clear,20,2013-09-18 05:47:00
1:48 AM,39.2,39.2,100,30.33,1.5,NNE,1.2,-,N/A,,Clear,30,2013-09-18 05:48:00
1:49 AM,39.2,39.2,100,30.33,1.2,NNE,2.3,-,N/A,,Clear,30,2013-09-18 05:49:00
1:50 AM,39.2,39.2,100,30.33,1.0,NNE,2.3,-,N/A,,Clear,30,2013-09-18 05:50:00
1:51 AM,39.2,39.2,100,30.33,0.8,NNE,1.2,-,N/A,,Clear,30,2013-09-18 05:51:00
1:53 AM,39.2,39.2,100,30.33,0.5,NNE,1.2,-,N/A,Fog,Fog,30,2013-09-18 05:53:00
1:58 AM,37.4,37.4,100,30.35,0.5,NNE,2.3,-,N/A,Fog,Fog,20,2013-09-18 05:58:00
2:02 AM,39.2,39.2,100,30.33,0.8,NNE,2.3,-,N/A,,Clear,30,2013-09-18 06:02:00
2:20 AM,39.2,39.2,100,30.33,1.0,Calm,Calm,-,N/A,,Clear,0,2013-09-18 06:20:00
2:22 AM,39.2,39.2,100,30.33,0.8,Calm,Calm,-,N/A,,Clear,0,2013-09-18 06:22:00
2:24 AM,39.2,39.2,100,30.33,1.0,Calm,Calm,-,N/A,,Clear,0,2013-09-18 06:24:00
2:26 AM,39.2,39.2,100,30.33,1.0,Calm,Calm,-,N/A,,Clear,0,2013-09-18 06:26:00
2:27 AM,39.2,39.2,100,30.33,1.2,Calm,Calm,-,N/A,,Clear,0,2013-09-18 06:27:00
2:28 AM,39.2,39.2,100,30.33,1.5,Calm,Calm,-,N/A,,Clear,0,2013-09-18 06:28:00
2:29 AM,39.2,39.2,100,30.33,1.5,Calm,Calm,-,N/A,,Clear,0,2013-09-18 06:29:00
2:30 AM,39.2,39.2,100,30.33,1.8,Calm,Calm,-,N/A,,Clear,0,2013-09-18 06:30:00
2:31 AM,39.2,39.2,100,30.33,2.0,Calm,Calm,-,N/A,,Clear,0,2013-09-18 06:31:00
2:32 AM,39.2,39.2,100,30.33,3.0,Calm,Calm,-,N/A,,Clear,0,2013-09-18 06:32:00
2:46 AM,39.2,37.4,93,30.33,2.5,Calm,Calm,-,N/A,,Clear,0,2013-09-18 06:46:00
2:47 AM,39.2,37.4,93,30.33,2.0,Calm,Calm,-,N/A,,Clear,0,2013-09-18 06:47:00
2:48 AM,37.4,37.4,100,30.33,1.8,Calm,Calm,-,N/A,,Clear,0,2013-09-18 06:48:00
2:49 AM,37.4,37.4,100,30.33,1.5,Calm,Calm,-,N/A,,Clear,0,2013-09-18 06:49:00
2:50 AM,37.4,37.4,100,30.33,1.2,Calm,Calm,-,N/A,,Clear,0,2013-09-18 06:50:00
2:51 AM,37.4,37.4,100,30.33,1.2,Calm,Calm,-,N/A,,Clear,0,2013-09-18 06:51:00
2:52 AM,37.4,37.4,100,30.33,1.0,Calm,Calm,-,N/A,,Clear,0,2013-09-18 06:52:00
2:53 AM,37.4,37.4,100,30.33,1.0,NE,1.2,-,N/A,,Clear,40,2013-09-18 06:53:00
2:54 AM,37.4,37.4,100,30.33,0.8,NE,2.3,-,N/A,,Clear,50,2013-09-18 06:54:00
2:58 AM,36.9,36.7,99,30.35,0.8,NE,2.3,-,N/A,,Clear,50,2013-09-18 06:58:00
3:00 AM,37.4,37.4,100,30.33,0.5,NE,2.3,-,N/A,Fog,Fog,40,2013-09-18 07:00:00
3:02 AM,37.4,37.4,100,30.33,0.8,NE,2.3,-,N/A,,Clear,40,2013-09-18 07:02:00
3:06 AM,35.6,35.6,100,30.33,0.8,NE,3.5,-,N/A,,Clear,40,2013-09-18 07:06:00
3:07 AM,35.6,35.6,100,30.33,1.0,NE,3.5,-,N/A,,Clear,40,2013-09-18 07:07:00
3:08 AM,35.6,35.6,100,30.33,1.0,NNE,3.5,-,N/A,,Clear,30,2013-09-18 07:08:00
3:09 AM,35.6,35.6,100,30.33,1.5,NE,3.5,-,N/A,,Clear,40,2013-09-18 07:09:00
3:10 AM,35.6,35.6,100,30.33,1.5,NE,3.5,-,N/A,,Clear,40,2013-09-18 07:10:00
3:11 AM,35.6,35.6,100,30.33,1.8,NE,2.3,-,N/A,,Clear,40,2013-09-18 07:11:00
3:12 AM,35.6,35.6,100,30.33,2.0,NE,2.3,-,N/A,,Clear,40,2013-09-18 07:12:00
3:13 AM,35.6,35.6,100,30.32,2.5,NE,2.3,-,N/A,,Clear,40,2013-09-18 07:13:00
3:14 AM,35.6,35.6,100,30.32,5.0,NE,2.3,-,N/A,,Clear,40,2013-09-18 07:14:00
3:40 AM,37.4,37.4,100,30.32,2.5,North,2.3,-,N/A,,Clear,10,2013-09-18 07:40:00
3:41 AM,37.4,37.4,100,30.32,2.0,North,2.3,-,N/A,,Clear,10,2013-09-18 07:41:00
3:42 AM,37.4,37.4,100,30.32,1.8,North,2.3,-,N/A,,Clear,10,2013-09-18 07:42:00
3:43 AM,37.4,37.4,100,30.32,1.5,North,2.3,-,N/A,,Clear,10,2013-09-18 07:43:00
3:44 AM,37.4,37.4,100,30.32,1.2,North,1.2,-,N/A,,Clear,10,2013-09-18 07:44:00
3:45 AM,37.4,37.4,100,30.32,1.0,NNE,1.2,-,N/A,,Clear,20,2013-09-18 07:45:00
3:49 AM,37.4,37.4,100,30.32,1.2,NNE,2.3,-,N/A,,Clear,20,2013-09-18 07:49:00
3:50 AM,37.4,37.4,100,30.32,1.2,NNE,2.3,-,N/A,,Clear,30,2013-09-18 07:50:00
3:51 AM,37.4,37.4,100,30.32,1.5,NNE,2.3,-,N/A,,Clear,30,2013-09-18 07:51:00
3:52 AM,37.4,37.4,100,30.32,1.8,NNE,2.3,-,N/A,,Clear,30,2013-09-18 07:52:00
3:53 AM,37.4,37.4,100,30.32,2.0,NNE,2.3,-,N/A,,Clear,30,2013-09-18 07:53:00
3:54 AM,37.4,37.4,100,30.32,2.5,NNE,2.3,-,N/A,,Clear,30,2013-09-18 07:54:00
3:55 AM,37.4,37.4,100,30.32,3.0,NNE,2.3,-,N/A,,Clear,30,2013-09-18 07:55:00
3:58 AM,37.2,36.9,99,30.34,4.0,NNE,2.3,-,N/A,,Clear,20,2013-09-18 07:58:00
4:06 AM,35.6,35.6,100,30.32,2.5,NE,2.3,-,N/A,,Clear,50,2013-09-18 08:06:00
4:07 AM,35.6,35.6,100,30.32,2.0,NE,2.3,-,N/A,,Clear,50,2013-09-18 08:07:00
4:09 AM,37.4,37.4,100,30.32,1.8,NE,2.3,-,N/A,,Clear,40,2013-09-18 08:09:00
4:12 AM,37.4,37.4,100,30.32,1.5,NE,2.3,-,N/A,,Clear,40,2013-09-18 08:12:00
4:13 AM,37.4,37.4,100,30.32,1.2,NE,2.3,-,N/A,,Clear,40,2013-09-18 08:13:00
4:14 AM,37.4,37.4,100,30.32,1.2,NE,2.3,-,N/A,,Clear,40,2013-09-18 08:14:00
4:16 AM,37.4,37.4,100,30.32,1.5,NE,2.3,-,N/A,,Clear,50,2013-09-18 08:16:00
4:17 AM,37.4,35.6,93,30.32,1.5,NE,2.3,-,N/A,,Clear,50,2013-09-18 08:17:00
4:19 AM,35.6,35.6,100,30.32,1.8,NE,2.3,-,N/A,,Clear,50,2013-09-18 08:19:00
4:22 AM,37.4,35.6,93,30.32,2.0,ENE,2.3,-,N/A,,Clear,60,2013-09-18 08:22:00
4:23 AM,37.4,37.4,100,30.32,2.5,ENE,2.3,-,N/A,,Clear,60,2013-09-18 08:23:00
4:24 AM,37.4,37.4,100,30.32,6.0,ENE,2.3,-,N/A,,Clear,70,2013-09-18 08:24:00
4:25 AM,37.4,37.4,100,30.32,8.0,ENE,1.2,-,N/A,,Partly Cloudy,60,2013-09-18 08:25:00
4:49 AM,35.6,35.6,100,30.32,2.5,Calm,Calm,-,N/A,,Scattered Clouds,0,2013-09-18 08:49:00
4:50 AM,35.6,35.6,100,30.32,1.8,Calm,Calm,-,N/A,,Scattered Clouds,0,2013-09-18 08:50:00
4:51 AM,35.6,35.6,100,30.32,1.5,Calm,Calm,-,N/A,,Scattered Clouds,0,2013-09-18 08:51:00
4:52 AM,37.4,35.6,93,30.32,1.5,Calm,Calm,-,N/A,,Scattered Clouds,0,2013-09-18 08:52:00
4:53 AM,37.4,35.6,93,30.32,1.2,Calm,Calm,-,N/A,,Scattered Clouds,0,2013-09-18 08:53:00
4:54 AM,37.4,35.6,93,30.32,1.2,Calm,Calm,-,N/A,,Scattered Clouds,0,2013-09-18 08:54:00
4:58 AM,36.5,36.3,99,30.34,1.2,Calm,Calm,-,N/A,,Scattered Clouds,0,2013-09-18 08:58:00
4:59 AM,35.6,35.6,100,30.32,1.2,Calm,Calm,-,N/A,,Scattered Clouds,0,2013-09-18 08:59:00
5:00 AM,37.4,35.6,93,30.32,1.5,Calm,Calm,-,N/A,,Scattered Clouds,0,2013-09-18 09:00:00
5:01 AM,37.4,35.6,93,30.32,1.8,Calm,Calm,-,N/A,,Partly Cloudy,0,2013-09-18 09:01:00
5:02 AM,37.4,35.6,93,30.32,2.0,Calm,Calm,-,N/A,,Partly Cloudy,0,2013-09-18 09:02:00
5:07 AM,35.6,35.6,100,30.32,1.8,Calm,Calm,-,N/A,,Scattered Clouds,0,2013-09-18 09:07:00
5:10 AM,35.6,35.6,100,30.32,1.5,Calm,Calm,-,N/A,,Scattered Clouds,0,2013-09-18 09:10:00
5:11 AM,35.6,35.6,100,30.32,1.5,Calm,Calm,-,N/A,,Mostly Cloudy,0,2013-09-18 09:11:00
5:12 AM,35.6,35.6,100,30.32,1.5,Calm,Calm,-,N/A,,Mostly Cloudy,0,2013-09-18 09:12:00
5:15 AM,35.6,35.6,100,30.32,1.8,Calm,Calm,-,N/A,,Mostly Cloudy,0,2013-09-18 09:15:00
5:16 AM,35.6,35.6,100,30.32,2.0,Calm,Calm,-,N/A,,Mostly Cloudy,0,2013-09-18 09:16:00
5:20 AM,35.6,35.6,100,30.32,2.5,North,1.2,-,N/A,,Mostly Cloudy,360,2013-09-18 09:20:00
5:23 AM,35.6,35.6,100,30.32,3.0,Calm,Calm,-,N/A,,Mostly Cloudy,0,2013-09-18 09:23:00
5:58 AM,37.4,37.0,99,30.34,2.0,NNE,2.3,-,N/A,,Overcast,30,2013-09-18 09:58:00
5:59 AM,37.4,37.4,100,30.32,1.8,NNE,2.3,-,N/A,,Overcast,30,2013-09-18 09:59:00
6:00 AM,37.4,37.4,100,30.32,1.5,NE,2.3,-,N/A,,Overcast,40,2013-09-18 10:00:00
6:01 AM,37.4,37.4,100,30.32,1.2,NE,2.3,-,N/A,,Overcast,40,2013-09-18 10:01:00
6:02 AM,37.4,37.4,100,30.32,1.0,NE,2.3,-,N/A,,Overcast,40,2013-09-18 10:02:00
6:03 AM,37.4,37.4,100,30.33,0.8,NE,2.3,-,N/A,,Overcast,40,2013-09-18 10:03:00
6:04 AM,37.4,37.4,100,30.33,0.8,NE,2.3,-,N/A,,Overcast,40,2013-09-18 10:04:00
6:06 AM,37.4,37.4,100,30.33,0.5,NE,2.3,-,N/A,Fog,Fog,40,2013-09-18 10:06:00
6:08 AM,37.4,37.4,100,30.33,0.5,NE,2.3,-,N/A,Fog,Fog,40,2013-09-18 10:08:00
6:10 AM,37.4,37.4,100,30.33,0.5,NNE,2.3,-,N/A,Fog,Fog,30,2013-09-18 10:10:00
6:11 AM,37.4,37.4,100,30.33,0.2,NNE,2.3,-,N/A,Fog,Fog,30,2013-09-18 10:11:00
6:13 AM,39.2,37.4,93,30.33,0.2,NNE,2.3,-,N/A,Fog,Fog,30,2013-09-18 10:13:00
6:14 AM,39.2,37.4,93,30.33,0.2,NNE,2.3,-,N/A,Fog,Fog,30,2013-09-18 10:14:00
6:18 AM,39.2,39.2,100,30.33,0.2,NNE,1.2,-,N/A,Fog,Fog,20,2013-09-18 10:18:00
6:21 AM,39.2,39.2,100,30.33,0.2,Calm,Calm,-,N/A,Fog,Fog,0,2013-09-18 10:21:00
6:22 AM,39.2,39.2,100,30.33,0.2,NE,1.2,-,N/A,Fog,Fog,40,2013-09-18 10:22:00
6:38 AM,39.2,39.2,100,30.33,0.2,NNE,1.2,-,N/A,Fog,Fog,30,2013-09-18 10:38:00
6:44 AM,39.2,39.2,100,30.33,0.2,NE,2.3,-,N/A,Fog,Fog,40,2013-09-18 10:44:00
6:47 AM,39.2,39.2,100,30.33,0.2,NE,2.3,-,N/A,Fog,Fog,50,2013-09-18 10:47:00
6:53 AM,39.2,39.2,100,30.34,0.2,NE,2.3,-,N/A,Fog,Fog,40,2013-09-18 10:53:00
6:58 AM,39.2,38.8,99,30.36,0.2,Calm,Calm,-,N/A,Fog,Fog,0,2013-09-18 10:58:00
6:59 AM,39.2,39.2,100,30.34,0.2,Calm,Calm,-,N/A,Fog,Fog,0,2013-09-18 10:59:00
7:06 AM,39.2,39.2,100,30.34,0.2,Calm,Calm,-,N/A,Fog,Fog,0,2013-09-18 11:06:00
7:10 AM,39.2,39.2,100,30.34,0.2,NNE,2.3,-,N/A,Fog,Fog,20,2013-09-18 11:10:00
7:11 AM,39.2,39.2,100,30.34,0.2,NNE,1.2,-,N/A,Fog,Fog,20,2013-09-18 11:11:00
7:12 AM,39.2,39.2,100,30.34,0.2,North,1.2,-,N/A,Fog,Fog,10,2013-09-18 11:12:00
7:27 AM,41.0,41.0,100,30.34,0.2,NNE,1.2,-,N/A,Fog,Fog,20,2013-09-18 11:27:00
7:46 AM,41.0,41.0,100,30.33,0.2,Calm,Calm,-,N/A,Fog,Fog,0,2013-09-18 11:46:00
7:48 AM,41.0,41.0,100,30.33,0.2,Calm,Calm,-,N/A,Fog,Fog,0,2013-09-18 11:48:00
7:50 AM,41.0,41.0,100,30.33,0.2,Calm,Calm,-,N/A,Fog,Fog,0,2013-09-18 11:50:00
7:57 AM,41.0,41.0,100,30.33,0.2,Calm,Calm,-,N/A,Fog,Fog,0,2013-09-18 11:57:00
7:58 AM,41.4,41.2,99,30.35,0.2,Calm,Calm,-,N/A,Fog,Fog,0,2013-09-18 11:58:00
8:00 AM,41.0,41.0,100,30.33,0.2,Calm,Calm,-,N/A,Fog,Fog,0,2013-09-18 12:00:00
8:01 AM,41.0,41.0,100,30.33,0.2,Calm,Calm,-,N/A,Fog,Fog,0,2013-09-18 12:01:00
8:21 AM,42.8,41.0,93,30.33,0.2,Calm,Calm,-,N/A,Fog,Fog,0,2013-09-18 12:21:00
8:27 AM,42.8,42.8,100,30.33,0.2,Calm,Calm,-,N/A,Fog,Fog,0,2013-09-18 12:27:00
8:38 AM,42.8,42.8,100,30.33,0.2,Calm,Calm,-,N/A,Fog,Fog,0,2013-09-18 12:38:00
8:41 AM,42.8,42.8,100,30.33,0.2,Calm,Calm,-,N/A,Fog,Fog,0,2013-09-18 12:41:00
8:46 AM,42.8,42.8,100,30.33,0.2,NNE,1.2,-,N/A,Fog,Fog,30,2013-09-18 12:46:00
8:48 AM,42.8,42.8,100,30.33,0.2,NNE,1.2,-,N/A,Fog,Fog,30,2013-09-18 12:48:00
8:58 AM,43.3,43.2,99,30.35,0.2,Calm,Calm,-,N/A,Fog,Fog,0,2013-09-18 12:58:00
9:00 AM,44.6,42.8,93,30.33,0.2,Calm,Calm,-,N/A,Fog,Fog,0,2013-09-18 13:00:00
9:07 AM,44.6,44.6,100,30.33,0.2,Calm,Calm,-,N/A,Fog,Fog,0,2013-09-18 13:07:00
9:22 AM,44.6,44.6,100,30.33,0.2,NW,1.2,-,N/A,Fog,Fog,320,2013-09-18 13:22:00
9:35 AM,46.4,44.6,93,30.32,0.2,NW,2.3,-,N/A,Fog,Fog,320,2013-09-18 13:35:00
9:37 AM,46.4,44.6,93,30.32,0.5,NNW,2.3,-,N/A,Fog,Fog,330,2013-09-18 13:37:00
9:47 AM,46.4,44.6,93,30.32,1.0,Calm,Calm,-,N/A,,Mostly Cloudy,0,2013-09-18 13:47:00
9:54 AM,46.4,46.4,100,30.32,2.0,NW,2.3,-,N/A,,Mostly Cloudy,310,2013-09-18 13:54:00
9:55 AM,46.4,46.4,100,30.32,4.0,NW,2.3,-,N/A,,Scattered Clouds,310,2013-09-18 13:55:00
9:58 AM,46.6,46.2,99,30.35,7.0,NW,2.3,-,N/A,,Scattered Clouds,310,2013-09-18 13:58:00
10:58 AM,52.2,52.0,99,30.32,10.0,WSW,2.3,-,N/A,,Clear,240,2013-09-18 14:58:00
11:58 AM,58.6,58.3,99,30.30,10.0,Variable,2.3,-,N/A,,Clear,0,2013-09-18 15:58:00
12:46 PM,66.2,48.2,52,30.25,10.0,Variable,4.6,-,N/A,,Clear,0,2013-09-18 16:46:00
12:58 PM,66.6,47.1,50,30.27,10.0,Variable,3.5,-,N/A,,Clear,0,2013-09-18 16:58:00
1:58 PM,69.6,47.1,45,30.24,10.0,Variable,3.5,-,N/A,,Clear,0,2013-09-18 17:58:00
2:58 PM,72.1,49.3,44,30.22,10.0,SSW,8.1,-,N/A,,Clear,200,2013-09-18 18:58:00
3:58 PM,72.9,49.8,44,30.20,10.0,SSW,5.8,-,N/A,,Clear,200,2013-09-18 19:58:00
4:58 PM,72.1,48.2,43,30.19,10.0,South,9.2,-,N/A,,Clear,180,2013-09-18 20:58:00
5:58 PM,70.0,47.5,45,30.18,10.0,South,8.1,-,N/A,,Clear,190,2013-09-18 21:58:00
6:58 PM,63.9,49.5,59,30.17,10.0,South,4.6,-,N/A,,Clear,170,2013-09-18 22:58:00
7:58 PM,59.0,48.7,69,30.18,10.0,South,5.8,-,N/A,,Clear,190,2013-09-18 23:58:00
8:58 PM,54.7,48.6,80,30.18,10.0,SSE,5.8,-,N/A,,Clear,160,2013-09-19 00:58:00
9:58 PM,54.1,49.6,85,30.20,10.0,South,4.6,-,N/A,,Clear,170,2013-09-19 01:58:00
10:58 PM,46.2,45.7,98,30.17,10.0,SSE,1.2,-,N/A,,Clear,150,2013-09-19 02:58:00
11:58 PM,46.8,46.4,99,30.19,10.0,Calm,Calm,-,N/A,,Clear,0,2013-09-19 03:58:00